• In Hungary
  • List of Countries
  • For 7 days
  • Water Temperature
  • Satellite Maps
  • Weather Map
  • News
  • Weather Widgets
  • user-avatar
    Login

    Hourly Weather Kayanza

    Today, 22 June, Friday

    Time Temperature Precipitation Wind Pressure Humidity
    00:00 +13°C° 1 mm 0 mps 607 mmHg 91%
    01:00 +13°C° 1 mm 0 mps 606 mmHg 91%
    02:00 +13°C° 0 mm 0 mps 606 mmHg 91%
    03:00 +13°C° 0.9 mm 0 mps 606 mmHg 91%
    04:00 +13°C° 0.9 mm 0 mps 606 mmHg 91%
    05:00 +13°C° 0.9 mm 0 mps 606 mmHg 91%
    06:00 +13°C° 0.9 mm 0 mps 607 mmHg 90%
    07:00 +14°C° 0.9 mm 0 mps 607 mmHg 88%
    08:00 +14°C° 0 mm 0 mps 607 mmHg 87%
    09:00 +15°C° 0.9 mm 0 mps 607 mmHg 86%
    10:00 +16°C° 0.9 mm 1 mps 607 mmHg 84%
    11:00 +16°C° 0.9 mm 1 mps 607 mmHg 82%
    12:00 +19°C° 0.5 mm 1 mps 607 mmHg 78%
    13:00 +20°C° 0.5 mm 1 mps 607 mmHg 74%
    14:00 +20°C° 0 mm 1 mps 607 mmHg 73%
    15:00 +19°C° 0.4 mm 1 mps 607 mmHg 74%
    16:00 +19°C° 0.4 mm 1 mps 607 mmHg 76%
    17:00 +19°C° 0.4 mm 1 mps 606 mmHg 77%
    18:00 +18°C° 0.4 mm 1 mps 606 mmHg 81%
    19:00 +15°C° 0.4 mm 1 mps 606 mmHg 86%
    20:00 +13°C° 0.4 mm 0 mps 606 mmHg 90%
    21:00 +13°C° 0.2 mm 0 mps 606 mmHg 90%
    22:00 +13°C° 0.2 mm 0 mps 606 mmHg 91%
    23:00 +14°C° 0.2 mm 1 mps 606 mmHg 91%

    Tomorrow, 23 June, Saturday

    Time Temperature Precipitation Wind Pressure Humidity
    00:00 +13°C° 0.1 mm 1 mps 606 mmHg 91%
    01:00 +13°C° 0.1 mm 1 mps 606 mmHg 92%
    02:00 +13°C° 0.1 mm 1 mps 606 mmHg 92%
    03:00 +13°C° 0.1 mm 1 mps 606 mmHg 92%
    04:00 +12°C° 0.1 mm 1 mps 605 mmHg 92%
    05:00 +11°C° 0.1 mm 0 mps 605 mmHg 93%
    06:00 +13°C° 0 mm 0 mps 606 mmHg 87%
    07:00 +14°C° 0 mm 0 mps 607 mmHg 82%
    08:00 +15°C° 0 mm 0 mps 608 mmHg 77%
    09:00 +19°C° 0.1 mm 1 mps 608 mmHg 70%
    10:00 +20°C° 0.1 mm 1 mps 608 mmHg 64%
    11:00 +21°C° 0.1 mm 2 mps 608 mmHg 57%
    12:00 +21°C° 0.1 mm 2 mps 608 mmHg 57%
    13:00 +21°C° 0.1 mm 2 mps 607 mmHg 57%
    14:00 +21°C° 0.1 mm 2 mps 607 mmHg 57%
    15:00 +22°C° 0.3 mm 1 mps 606 mmHg 60%
    16:00 +21°C° 0.3 mm 1 mps 606 mmHg 63%
    17:00 +21°C° 0.3 mm 1 mps 606 mmHg 66%
    18:00 +19°C° 0.1 mm 1 mps 605 mmHg 71%
    19:00 +16°C° 0.1 mm 1 mps 605 mmHg 76%
    20:00 +15°C° 0.1 mm 1 mps 605 mmHg 81%
    21:00 +14°C° 0 mm 1 mps 605 mmHg 82%
    22:00 +14°C° 0 mm 1 mps 605 mmHg 83%
    23:00 +13°C° 0 mm 1 mps 605 mmHg 84%

    Day after tomorrow, 24 June, Sunday

    Time Temperature Precipitation Wind Pressure Humidity
    00:00 +13°C° 0 mm 1 mps 605 mmHg 85%
    01:00 +13°C° 0 mm 1 mps 605 mmHg 86%
    02:00 +12°C° 0 mm 1 mps 604 mmHg 86%
    03:00 +12°C° 0 mm 1 mps 604 mmHg 86%
    04:00 +12°C° 0 mm 1 mps 604 mmHg 86%
    05:00 +12°C° 0 mm 1 mps 604 mmHg 86%
    06:00 +14°C° 0 mm 1 mps 605 mmHg 80%
    07:00 +15°C° 0 mm 0 mps 606 mmHg 74%
    08:00 +16°C° 0 mm 0 mps 607 mmHg 68%
    09:00 +20°C° 0 mm 1 mps 608 mmHg 61%
    10:00 +21°C° 0 mm 2 mps 608 mmHg 54%
    11:00 +23°C° 0 mm 2 mps 609 mmHg 47%
    12:00 +23°C° 0 mm 2 mps 608 mmHg 49%
    13:00 +23°C° 0 mm 2 mps 607 mmHg 51%
    14:00 +22°C° 0 mm 1 mps 606 mmHg 53%
    15:00 +22°C° 0.1 mm 1 mps 606 mmHg 56%
    16:00 +22°C° 0.1 mm 1 mps 606 mmHg 59%
    17:00 +21°C° 0.1 mm 1 mps 606 mmHg 62%
    18:00 +20°C° 0.1 mm 1 mps 606 mmHg 67%
    19:00 +18°C° 0.1 mm 1 mps 605 mmHg 72%
    20:00 +15°C° 0.1 mm 1 mps 605 mmHg 77%
    21:00 +15°C° 0 mm 1 mps 605 mmHg 79%
    22:00 +14°C° 0 mm 1 mps 605 mmHg 80%
    23:00 +14°C° 0 mm 1 mps 605 mmHg 82%

    25 June, Monday

    Time Temperature Precipitation Wind Pressure Humidity
    00:00 +13°C° 0 mm 1 mps 605 mmHg 83%
    01:00 +13°C° 0 mm 1 mps 605 mmHg 84%
    02:00 +13°C° 0 mm 1 mps 604 mmHg 85%
    03:00 +12°C° 0 mm 1 mps 604 mmHg 85%
    04:00 +12°C° 0 mm 1 mps 604 mmHg 85%
    05:00 +12°C° 0 mm 1 mps 604 mmHg 85%
    06:00 +14°C° 0 mm 1 mps 605 mmHg 79%
    07:00 +14°C° 0 mm 0 mps 606 mmHg 73%
    08:00 +16°C° 0 mm 0 mps 607 mmHg 66%
    09:00 +20°C° 0 mm 1 mps 607 mmHg 60%
    10:00 +20°C° 0 mm 2 mps 608 mmHg 53%
    11:00 +22°C° 0 mm 3 mps 608 mmHg 46%
    12:00 +23°C° 0 mm 2 mps 608 mmHg 46%
    13:00 +23°C° 0 mm 2 mps 607 mmHg 46%
    14:00 +24°C° 0 mm 2 mps 606 mmHg 46%
    15:00 +23°C° 0 mm 1 mps 606 mmHg 48%
    16:00 +22°C° 0 mm 1 mps 606 mmHg 51%
    17:00 +22°C° 0 mm 1 mps 605 mmHg 53%
    18:00 +20°C° 0 mm 1 mps 605 mmHg 58%
    19:00 +18°C° 0 mm 1 mps 605 mmHg 63%
    20:00 +15°C° 0 mm 1 mps 605 mmHg 68%
    21:00 +15°C° 0 mm 1 mps 605 mmHg 69%
    22:00 +14°C° 0 mm 1 mps 605 mmHg 71%
    23:00 +14°C° 0 mm 1 mps 605 mmHg 73%

    26 June, Tuesday

    Time Temperature Precipitation Wind Pressure Humidity
    00:00 +13°C° 0 mm 1 mps 605 mmHg 75%
    01:00 +13°C° 0 mm 1 mps 604 mmHg 76%
    02:00 +12°C° 0 mm 1 mps 604 mmHg 78%
    03:00 +12°C° 0 mm 1 mps 604 mmHg 78%
    04:00 +12°C° 0 mm 1 mps 604 mmHg 79%
    05:00 +12°C° 0 mm 1 mps 604 mmHg 79%
    06:00 +14°C° 0 mm 1 mps 605 mmHg 72%
    07:00 +15°C° 0 mm 1 mps 606 mmHg 65%
    08:00 +18°C° 0 mm 1 mps 607 mmHg 58%
    09:00 +19°C° 0 mm 2 mps 607 mmHg 53%
    10:00 +20°C° 0 mm 2 mps 608 mmHg 48%
    11:00 +22°C° 0 mm 3 mps 608 mmHg 43%
    12:00 +23°C° 0 mm 2 mps 608 mmHg 43%
    13:00 +24°C° 0 mm 2 mps 607 mmHg 42%
    14:00 +24°C° 0 mm 2 mps 606 mmHg 42%
    15:00 +23°C° 0 mm 2 mps 606 mmHg 44%
    16:00 +23°C° 0 mm 1 mps 606 mmHg 47%
    17:00 +22°C° 0 mm 1 mps 605 mmHg 50%
    18:00 +20°C° 0 mm 1 mps 605 mmHg 56%
    19:00 +18°C° 0 mm 1 mps 605 mmHg 61%
    20:00 +15°C° 0 mm 1 mps 605 mmHg 66%
    21:00 +14°C° 0 mm 1 mps 605 mmHg 68%
    22:00 +14°C° 0 mm 1 mps 605 mmHg 70%
    23:00 +13°C° 0 mm 1 mps 605 mmHg 71%

    27 June, Wednesday

    Time Temperature Precipitation Wind Pressure Humidity
    00:00 +13°C° 0 mm 1 mps 604 mmHg 72%
    01:00 +13°C° 0 mm 1 mps 604 mmHg 73%
    02:00 +12°C° 0 mm 1 mps 604 mmHg 74%
    03:00 +12°C° 0 mm 1 mps 604 mmHg 75%
    04:00 +12°C° 0 mm 1 mps 604 mmHg 75%
    05:00 +12°C° 0 mm 1 mps 604 mmHg 75%
    06:00 +14°C° 0 mm 1 mps 605 mmHg 69%
    07:00 +15°C° 0 mm 1 mps 606 mmHg 64%
    08:00 +18°C° 0 mm 1 mps 607 mmHg 58%
    09:00 +20°C° 0 mm 1 mps 608 mmHg 54%
    10:00 +20°C° 0 mm 2 mps 608 mmHg 50%
    11:00 +23°C° 0 mm 2 mps 608 mmHg 45%
    12:00 +23°C° 0 mm 2 mps 608 mmHg 45%
    13:00 +24°C° 0 mm 2 mps 607 mmHg 44%
    14:00 +24°C° 0 mm 2 mps 606 mmHg 43%
    15:00 +23°C° 0 mm 1 mps 606 mmHg 46%
    16:00 +23°C° 0 mm 1 mps 606 mmHg 48%
    17:00 +22°C° 0 mm 1 mps 605 mmHg 51%
    18:00 +20°C° 0 mm 1 mps 605 mmHg 56%
    19:00 +18°C° 0 mm 1 mps 605 mmHg 62%
    20:00 +15°C° 0 mm 1 mps 605 mmHg 68%
    21:00 +14°C° 0 mm 1 mps 605 mmHg 69%
    22:00 +14°C° 0 mm 1 mps 605 mmHg 70%
    23:00 +14°C° 0 mm 1 mps 605 mmHg 71%
    Show more